FREGAT R/B, 41176

Orbit data source: Space-Track

FREGAT R/B, 41176 is space debris originally from a launch on Thu, 17 Dec 2015 UTC launched from the French Guiana (FRGUI). Debris objects in space refer to the collection of defunct objects orbiting the Earth. Examples of debris include non-operational satellites, rocket bodies, and fragments generated from explosions, collisions, or faulty payload assembly.

Loading next visibility...
Identifier
41176, 2015-079C
Orbit
Active
Last TLE update
4 days ago
Origin
Manufacturer
Lavochkin
Mission
Spacecraft
Bus & Motor
FREGAT, Unknown motor
Mass
1,050 kg wet, 1,050 kg dry
Launch date (UTC)
2015-12-17 (9 years ago)
Launch vehicle
Unknown
Launch site
French Guiana (FRGUI)
Object type
Payload
Rocket body
Debris
Shape & HBR
Irr, 3.3 m
Radar Cross Section
11.055 m², Large (>1 m²)

Expand to show TLE details & history

TLE from 4 days ago
0 FREGAT R/B
1 41176U 15079C   25125.56487454  .00000056  00000-0  00000-0 0  9990
2 41176  55.5346 116.0142 0013642 251.6122 108.2350  1.67560920 57422
Epoch: 2025-05-05T13:33Z
Definitive object data (Epoch: 2025-05-05T13:33:25.16Z)
Latitude
0.00001°
Longitude
48.96837°
Altitude
23,577.353 km
Speed
3.647 km/s
True Right ascension
07h 43m 59s
True Declination
0° 00' 00"
Sunlit
Object was in daylight at TLE epoch
Visualization TLE readout
Latitude
42.40444°
Longitude
87.66981°
Altitude
23,607.973 km
Speed
3.644 km/s
Apparent Right ascension
09h 32m 53s
Apparent Declination
39° 29' 38"
Sunlit
Object is in daylight
Visualization observer readout
Local Sidereal Time
13:49:27
Azimuth
291.378° WNW
Elevation
41.777°
Doppler factor
1
Orbital elements
Apogee altitude
23,605.105 km
Perigee altitude
23,523.41 km
Semi-major axis
29,942.395 km
Eccentricity
0.0013642
Inclination
55.5346°
RAAN
116.0142°
Arg. of periapsis
251.6122°
True anomaly
108.3834°
Mean anomaly
108.235°
Eccentric anomaly
108.30921°
Mean motion
0.4189 °/min
BSTAR
Unknown
Orbital period
859.39 mins
Loading maneuver chart data...
Loading SW <> Apogee altitude chart data...
Loading historical data...
Loading historical data...
Loading historical data...
Loading historical data...
Loading historical data...
Loading historical data...
Loading historical data...
Other satellites on launch #79 in the year 2015 (2015-12-17 UTC)

FREGAT R/B Visibility forecast

Observer location: undefined°, undefined°

Span
Click to sort rows by Start time (UTC) header in descending order
Start Az.
Max El. time (UTC)
Max El. Az.
Max El.
End time (UTC)
End Az.
377 mins2025-05-09 05:40:44.849Z291.349° WNW2025-05-09 08:26:44.849Z58.027° ENE44.732°2025-05-09 11:57:44.849Z166.467° S
81 mins2025-05-09 19:30:44.849Z63.768° ENE2025-05-09 20:11:44.849Z50.386° ENE12.334°2025-05-09 20:51:44.849Z38.186° NE
|